History for Boise, ID on Friday, January 30, 2015

Jump to data by:

Latest visited Airport Codes: KBOI

Data type:
 

« Previous Day | Next Day »

 
Daily Summary
Actual Average Record
Temperature
Mean Temperature 34 °F 33 °F  
Max Temperature 44 °F 40 °F 56 °F (1992)
Min Temperature 28 °F 26 °F -13 °F (1979)
Degree Days
Heating Degree Days 30 32  
Month to date heating degree days 1014  
Since 1 July heating degree days 3329  
Cooling Degree Days 0 0  
Month to date cooling degree days 0  
Year to date cooling degree days 0  
Moisture
Dew Point 30 °F    
Average Humidity 93    
Maximum Humidity 100    
Minimum Humidity 68    
Precipitation
Precipitation 0.00 in 0.03 in 0.55 in (1881)
Month to date precipitation 1.20  
Year to date precipitation 1.20  
Snow
Snow - 0.20 in 4.80 in (1963)
Month to date snowfall 5.0  
Since 1 July snowfall 14.7  
Snow Depth -    
Sea Level Pressure
Sea Level Pressure 30.30 in    
Wind
Wind Speed 2 mph ()    
Max Wind Speed 14 mph    
Max Gust Speed -    
Visibility 5.7 miles    
Events Fog   
Key: T is trace of precipitation, MM is missing value
Source: Averaged Metar Reports
Time (MST) Temp. Dew Point Humidity Sea Level Pressure Visibility Wind Direction Wind Speed Gust Speed Precip. Events Conditions
12:53 AM 33.1 °F 30.0 °F 89% 30.35 in 10.0 miles SSE 3.5 mph - N/A   Clear
1:53 AM 32.0 °F 28.9 °F 88% 30.34 in 10.0 miles South 3.5 mph - N/A   Clear
2:53 AM 30.9 °F 28.0 °F 89% 30.34 in 10.0 miles South 4.6 mph - N/A   Clear
3:53 AM 32.0 °F 28.9 °F 88% 30.33 in 10.0 miles South 5.8 mph - N/A   Clear
4:53 AM 30.0 °F 28.0 °F 92% 30.32 in 10.0 miles Calm Calm - N/A   Clear
5:53 AM 28.9 °F 26.1 °F 89% 30.32 in 10.0 miles Calm Calm - N/A   Clear
6:53 AM 28.9 °F 26.1 °F 89% 30.31 in 10.0 miles Calm Calm - N/A   Clear
7:53 AM 30.0 °F 27.0 °F 88% 30.32 in 9.0 miles SSW 3.5 mph - N/A   Partly Cloudy
8:00 AM 28.4 °F 28.4 °F 100% 30.27 in 1.8 miles Calm Calm - N/A   Mostly Cloudy
8:03 AM 28.4 °F 28.4 °F 100% 30.27 in 1.0 miles SSW 3.5 mph - N/A   Mist
8:07 AM 28.4 °F 28.4 °F 100% 30.27 in 0.2 miles South 3.5 mph - N/A Fog Light Freezing Fog
8:14 AM 28.4 °F 28.4 °F 100% 30.27 in 0.2 miles Calm Calm - N/A Fog Light Freezing Fog
8:53 AM 30.0 °F 28.9 °F 96% 30.32 in 0.2 miles SW 3.5 mph - N/A Fog Light Freezing Fog
9:53 AM 30.2 °F 30.2 °F 100% 30.29 in 0.2 miles Calm Calm - N/A Fog Light Freezing Fog
10:51 AM 30.2 °F 30.2 °F 100% 30.29 in 0.2 miles Calm Calm - N/A Fog Light Freezing Fog
10:53 AM 30.9 °F 30.9 °F 100% 30.35 in 0.2 miles Calm Calm - N/A Fog Light Freezing Fog
11:39 AM 32.0 °F 32.0 °F 100% 30.28 in 1.0 miles Calm Calm - N/A   Partly Cloudy
11:51 AM 33.8 °F 33.8 °F 100% 30.28 in 8.0 miles Calm Calm - N/A   Partly Cloudy
11:53 AM 33.1 °F 33.1 °F 100% 30.33 in 8.0 miles Variable 3.5 mph - N/A   Partly Cloudy
12:53 PM 41.0 °F 34.0 °F 76% 30.30 in 10.0 miles NNW 9.2 mph - N/A   Clear
1:53 PM 44.1 °F 34.0 °F 68% 30.25 in 10.0 miles NW 13.8 mph - N/A   Clear

Powered by the Weather Underground, Inc.